Location: Unspecified
(0.0000°N, 0.0000°E)
Time: 23:32:11
(UTC+00:00)

S-56A Canister/Altair - Pass Details

Date: 01 October 2020
Orbit: 633 x 2499 km, 38.9° (Epoch: 28 October)

Event Time Altitude Azimuth Distance (km) Brightness Sun altitude
Rises 22:10:16 0° 309° (NW) 4,651 11.8 -65.0°
Enters shadow 22:10:47 - 309° (NW) 4,473 11.7 -65.1°
Reaches altitude 10° 22:13:52 10° 308° (NW) 3,367 - -65.9°
Maximum altitude 22:21:47 79° 223° (SW) 986 - -67.8°
Drops below altitude 10° 22:27:09 10° 136° (SE) 2,318 - -69.1°
Sets 22:29:14 0° 134° (SE) 3,121 - -69.6°
